Location: Newark
(45.8667°N, 9.7333°E)
Time: 00:51:40
(UTC+00:00)

ITAMSAT 1 - Pass Details

Date: 21 February 2020
Orbit: 784 x 796 km, 98.9° (Epoch: 06 April)

Event Time Altitude Azimuth Distance (km) Brightness Sun altitude
Rises 03:31:03 0° 35° (NE) 3,306 11.6 -29.1°
Reaches altitude 10° 03:35:29 10° 71° (ENE) 2,371 11.1 -28.3°
Maximum altitude 03:36:54 11° 87° (E) 2,298 11.0 -28.1°
Drops below altitude 10° 03:38:18 10° 103° (ESE) 2,367 10.9 -27.8°
Sets 03:42:41 0° 138° (SE) 3,289 11.2 -27.1°
